TimeCDT,TemperatureF,Dew PointF,Humidity,Sea Level PressureIn,VisibilityMPH,Wind Direction,Wind SpeedMPH,Gust SpeedMPH,PrecipitationIn,Events,Conditions,WindDirDegrees,DateUTC
12:15 AM,1.4,-2.2,85,30.02,10.0,West,6.9,-,N/A,,Unknown,270,2013-03-19 05:15:00
12:35 AM,1.4,-2.2,85,30.02,10.0,West,9.2,-,N/A,,Unknown,270,2013-03-19 05:35:00
12:55 AM,1.4,-2.2,85,30.02,10.0,West,10.4,-,N/A,,Unknown,280,2013-03-19 05:55:00
1:15 AM,-0.4,-4.0,85,30.02,10.0,West,9.2,-,N/A,,Unknown,280,2013-03-19 06:15:00
1:35 AM,-0.4,-2.2,92,30.02,10.0,WNW,9.2,-,N/A,,Unknown,300,2013-03-19 06:35:00
1:55 AM,-0.4,-4.0,85,30.02,10.0,WNW,10.4,-,N/A,,Unknown,290,2013-03-19 06:55:00
2:15 AM,-0.4,-4.0,85,30.02,10.0,West,6.9,-,N/A,,Unknown,280,2013-03-19 07:15:00
2:35 AM,-2.2,-5.8,85,30.03,10.0,West,8.1,-,N/A,,Unknown,280,2013-03-19 07:35:00
2:55 AM,-0.4,-5.8,78,30.03,10.0,West,6.9,-,N/A,,Unknown,280,2013-03-19 07:55:00
3:15 AM,-2.2,-5.8,85,30.02,10.0,NW,5.8,-,N/A,,Clear,310,2013-03-19 08:15:00
3:35 AM,-0.4,-4.0,85,30.02,10.0,NW,6.9,-,N/A,,Unknown,310,2013-03-19 08:35:00
3:55 AM,-0.4,-4.0,85,30.03,10.0,WNW,6.9,-,N/A,,Unknown,290,2013-03-19 08:55:00
4:15 AM,-0.4,-4.0,85,30.03,10.0,NW,5.8,-,N/A,,Unknown,320,2013-03-19 09:15:00
4:35 AM,-0.4,-5.8,78,30.05,10.0,West,5.8,-,N/A,,Unknown,280,2013-03-19 09:35:00
5:15 AM,-2.2,-7.6,78,30.07,10.0,West,6.9,-,N/A,,Unknown,280,2013-03-19 10:15:00
5:35 AM,-2.2,-7.6,78,30.06,10.0,West,6.9,-,N/A,,Unknown,280,2013-03-19 10:35:00
5:55 AM,-2.2,-7.6,78,30.05,10.0,WNW,8.1,-,N/A,,Unknown,290,2013-03-19 10:55:00
6:15 AM,-2.2,-7.6,78,30.06,10.0,West,9.2,-,N/A,,Unknown,270,2013-03-19 11:15:00
6:35 AM,-2.2,-7.6,78,30.06,10.0,WNW,4.6,-,N/A,,Unknown,290,2013-03-19 11:35:00
6:55 AM,-2.2,-7.6,78,30.07,10.0,West,8.1,-,N/A,,Unknown,280,2013-03-19 11:55:00
7:15 AM,-2.2,-7.6,78,30.08,10.0,WNW,9.2,-,N/A,,Unknown,300,2013-03-19 12:15:00
7:35 AM,-2.2,-7.6,78,30.09,10.0,West,5.8,-,N/A,,Unknown,280,2013-03-19 12:35:00
7:55 AM,-2.2,-7.6,78,30.10,10.0,WNW,9.2,-,N/A,,Unknown,290,2013-03-19 12:55:00
8:15 AM,-0.4,-4.0,85,30.10,10.0,NW,10.4,-,N/A,,Unknown,310,2013-03-19 13:15:00
8:35 AM,1.4,-4.0,78,30.11,10.0,NW,6.9,-,N/A,,Unknown,310,2013-03-19 13:35:00
8:55 AM,1.4,-2.2,85,30.13,10.0,NW,9.2,-,N/A,,Unknown,320,2013-03-19 13:55:00
9:15 AM,1.4,-4.0,78,30.14,10.0,Calm,Calm,-,N/A,,Unknown,0,2013-03-19 14:15:00
9:35 AM,1.4,-2.2,85,30.13,10.0,WNW,5.8,-,N/A,,Unknown,300,2013-03-19 14:35:00
9:55 AM,3.2,-2.2,78,30.14,10.0,West,4.6,-,N/A,,Unknown,280,2013-03-19 14:55:00
10:15 AM,5.0,-0.4,78,30.15,10.0,NW,6.9,-,N/A,,Unknown,320,2013-03-19 15:15:00
10:35 AM,6.8,-0.4,72,30.15,10.0,NNW,6.9,-,N/A,,Unknown,330,2013-03-19 15:35:00
10:55 AM,6.8,1.4,79,30.16,10.0,NNW,8.1,-,N/A,,Unknown,340,2013-03-19 15:55:00
11:15 AM,8.6,1.4,73,30.17,10.0,NNW,9.2,-,N/A,,Unknown,330,2013-03-19 16:15:00
11:35 AM,8.6,3.2,79,30.18,10.0,NW,11.5,-,N/A,,Unknown,320,2013-03-19 16:35:00
11:55 AM,10.4,3.2,73,30.19,10.0,NW,11.5,-,N/A,Snow,Light Snow,310,2013-03-19 16:55:00
12:15 PM,10.4,6.8,85,30.20,7.0,NW,16.1,-,0.01,Snow,Light Snow,320,2013-03-19 17:15:00
12:35 PM,12.2,8.6,85,30.20,7.0,NNW,17.3,-,0.03,Snow,Light Snow,330,2013-03-19 17:35:00
12:55 PM,10.4,8.6,92,30.20,5.0,NW,15.0,-,0.04,Snow,Light Snow,320,2013-03-19 17:55:00
1:15 PM,12.2,8.6,85,30.21,5.0,NNW,16.1,-,N/A,Snow,Light Snow,330,2013-03-19 18:15:00
1:35 PM,12.2,8.6,85,30.21,5.0,NW,17.3,-,0.01,Snow,Light Snow,320,2013-03-19 18:35:00
1:55 PM,12.2,8.6,85,30.22,9.0,NW,16.1,-,0.01,Snow,Light Snow,320,2013-03-19 18:55:00
2:15 PM,14.0,8.6,79,30.22,10.0,NW,16.1,-,N/A,Snow,Light Snow,310,2013-03-19 19:15:00
2:35 PM,14.0,8.6,79,30.22,10.0,NW,19.6,24.2,N/A,Snow,Light Snow,310,2013-03-19 19:35:00
2:55 PM,14.0,10.4,86,30.22,9.0,NW,19.6,-,N/A,Snow,Light Snow,320,2013-03-19 19:55:00
3:15 PM,14.0,8.6,79,30.23,9.0,NW,15.0,-,N/A,Snow,Light Snow,320,2013-03-19 20:15:00
3:35 PM,14.0,10.4,86,30.23,5.0,NW,18.4,23.0,0.01,Snow,Light Snow,320,2013-03-19 20:35:00
3:55 PM,14.0,10.4,86,30.24,2.5,NW,17.3,23.0,0.05,Snow,Light Snow,310,2013-03-19 20:55:00
4:15 PM,14.0,10.4,86,30.25,5.0,WNW,19.6,-,N/A,Snow,Light Snow,300,2013-03-19 21:15:00
4:35 PM,14.0,8.6,79,30.25,7.0,NW,21.9,27.6,0.01,Snow,Light Snow,310,2013-03-19 21:35:00
4:55 PM,14.0,10.4,86,30.26,4.0,NW,15.0,26.5,0.02,Snow,Light Snow,310,2013-03-19 21:55:00
5:15 PM,14.0,10.4,86,30.27,2.0,WNW,19.6,25.3,0.04,Snow,Light Snow,300,2013-03-19 22:15:00
5:35 PM,14.0,8.6,79,30.28,5.0,NW,18.4,-,0.07,Snow,Light Snow,310,2013-03-19 22:35:00
5:55 PM,14.0,8.6,79,30.29,3.0,NW,23.0,27.6,0.11,Snow,Light Snow,310,2013-03-19 22:55:00
6:15 PM,12.2,8.6,85,30.29,1.5,NW,21.9,26.5,0.08,Snow,Light Snow,320,2013-03-19 23:15:00
6:35 PM,12.2,8.6,85,30.30,5.0,WNW,19.6,24.2,0.11,Snow,Light Snow,300,2013-03-19 23:35:00
6:55 PM,10.4,6.8,85,30.31,10.0,NW,17.3,23.0,0.11,,Unknown,310,2013-03-19 23:55:00
7:15 PM,10.4,6.8,85,30.31,10.0,NW,17.3,26.5,N/A,,Unknown,310,2013-03-20 00:15:00
7:35 PM,10.4,6.8,85,30.32,10.0,NW,16.1,-,N/A,,Unknown,310,2013-03-20 00:35:00
7:55 PM,8.6,5.0,85,30.32,10.0,NW,13.8,-,N/A,,Unknown,310,2013-03-20 00:55:00
8:15 PM,8.6,5.0,85,30.33,10.0,NW,13.8,-,N/A,,Unknown,310,2013-03-20 01:15:00
8:35 PM,8.6,5.0,85,30.32,10.0,NW,16.1,-,N/A,,Unknown,310,2013-03-20 01:35:00
8:55 PM,8.6,5.0,85,30.33,10.0,NW,15.0,-,N/A,,Unknown,310,2013-03-20 01:55:00
9:15 PM,8.6,3.2,79,30.33,10.0,NW,15.0,-,N/A,,Unknown,310,2013-03-20 02:15:00
9:35 PM,6.8,3.2,85,30.34,10.0,NW,13.8,-,N/A,,Unknown,310,2013-03-20 02:35:00
9:55 PM,6.8,3.2,85,30.33,10.0,NW,18.4,-,N/A,,Unknown,310,2013-03-20 02:55:00
10:15 PM,6.8,1.4,79,30.33,10.0,NW,17.3,-,N/A,,Unknown,310,2013-03-20 03:15:00
10:35 PM,6.8,1.4,79,30.34,10.0,NW,16.1,20.7,N/A,,Unknown,310,2013-03-20 03:35:00
10:55 PM,5.0,1.4,85,30.34,10.0,NW,15.0,-,N/A,,Unknown,310,2013-03-20 03:55:00
11:15 PM,5.0,1.4,85,30.34,10.0,NW,15.0,-,N/A,,Unknown,310,2013-03-20 04:15:00
11:35 PM,5.0,1.4,85,30.34,10.0,NW,13.8,-,N/A,,Unknown,310,2013-03-20 04:35:00
11:55 PM,5.0,-0.4,78,30.34,10.0,NW,15.0,-,N/A,,Unknown,310,2013-03-20 04:55:00